DAL325 KATL-KDCA

Flight info

Callsign DAL325
Flight time 1h 21m
Altitude 37000
Route JACCC2 KELLN Q56 KIWII WAVES CAPSS4
Aircraft A320/M-SDE3FGHIRWY/LB1

Departure

Time 2026-05-06 23:30
Airport Hartsfield Jackson Atlanta International Airport (KATL)

Arrival

Time 2026-05-07 00:51
Airport Ronald Reagan Washington National Airport (KDCA)
Time Latitude Longitude Altitude Speed Heading
2026-05-06 21:58 33.64183 -84.43651 1021 ft 0 kts 90°
2026-05-06 23:18 33.64183 -84.43665 1021 ft 2 kts 90°
2026-05-06 23:18 33.64183 -84.43683 1021 ft 2 kts 90°
2026-05-06 23:18 33.64183 -84.43700 1021 ft 2 kts 90°
2026-05-06 23:19 33.64183 -84.43719 1021 ft 1 kts 100°
2026-05-06 23:19 33.64187 -84.43729 1021 ft 0 kts 131°
2026-05-06 23:19 33.64193 -84.43735 1021 ft 0 kts 135°
2026-05-06 23:21 33.64191 -84.43733 1021 ft 1 kts 141°
2026-05-06 23:22 33.64167 -84.43722 1021 ft 6 kts 173°
2026-05-06 23:22 33.64105 -84.43721 1021 ft 10 kts 181°
2026-05-06 23:22 33.64026 -84.43722 1021 ft 11 kts 180°
2026-05-06 23:22 33.63940 -84.43722 1021 ft 12 kts 180°
2026-05-06 23:23 33.63850 -84.43722 1021 ft 13 kts 181°
2026-05-06 23:23 33.63754 -84.43722 1021 ft 13 kts 180°
2026-05-06 23:23 33.63673 -84.43691 1021 ft 12 kts 121°
2026-05-06 23:23 33.63663 -84.43587 1021 ft 13 kts 91°
2026-05-06 23:24 33.63662 -84.43475 1021 ft 13 kts 91°
2026-05-06 23:24 33.63662 -84.43359 1021 ft 14 kts 88°
2026-05-06 23:24 33.63663 -84.43238 1021 ft 14 kts 91°
2026-05-06 23:24 33.63663 -84.43117 1021 ft 14 kts 90°
2026-05-06 23:25 33.63662 -84.42992 1021 ft 15 kts 90°
2026-05-06 23:25 33.63662 -84.42863 1021 ft 15 kts 90°
2026-05-06 23:25 33.63659 -84.42734 1021 ft 15 kts 96°
2026-05-06 23:25 33.63656 -84.42600 1021 ft 15 kts 90°
2026-05-06 23:26 33.63655 -84.42466 1021 ft 16 kts 90°
2026-05-06 23:26 33.63655 -84.42330 1021 ft 16 kts 90°
2026-05-06 23:26 33.63648 -84.42191 1020 ft 17 kts 111°
2026-05-06 23:26 33.63590 -84.42069 1017 ft 12 kts 115°
2026-05-06 23:27 33.63580 -84.41956 1015 ft 15 kts 90°
2026-05-06 23:27 33.63580 -84.41818 1014 ft 17 kts 89°
2026-05-06 23:27 33.63580 -84.41666 1013 ft 18 kts 89°
2026-05-06 23:27 33.63581 -84.41509 1011 ft 19 kts 90°
2026-05-06 23:28 33.63581 -84.41339 1008 ft 21 kts 90°
2026-05-06 23:28 33.63580 -84.41156 1005 ft 22 kts 90°
2026-05-06 23:28 33.63580 -84.40977 1004 ft 16 kts 90°
2026-05-06 23:28 33.63528 -84.40908 1003 ft 13 kts 177°
2026-05-06 23:29 33.63472 -84.40940 1003 ft 7 kts 270°
2026-05-06 23:29 33.63470 -84.41048 1004 ft 33 kts 269°
2026-05-06 23:29 33.63470 -84.41608 1007 ft 98 kts 269°
2026-05-06 23:29 33.63470 -84.42650 1009 ft 150 kts 270°
2026-05-06 23:30 33.63483 -84.43979 1360 ft 162 kts 268°
2026-05-06 23:30 33.63523 -84.45335 1887 ft 167 kts 269°
2026-05-06 23:30 33.63581 -84.46728 2477 ft 169 kts 266°
2026-05-06 23:30 33.63329 -84.48093 2918 ft 174 kts 243°
2026-05-06 23:31 33.62736 -84.49417 3214 ft 188 kts 238°
2026-05-06 23:31 33.62053 -84.50868 3479 ft 208 kts 240°
2026-05-06 23:31 33.61338 -84.52464 3821 ft 225 kts 242°
2026-05-06 23:31 33.60596 -84.54181 4187 ft 241 kts 242°
2026-05-06 23:32 33.59821 -84.55996 4777 ft 248 kts 240°
2026-05-06 23:32 33.58704 -84.57530 5482 ft 252 kts 217°
2026-05-06 23:32 33.57087 -84.58357 6185 ft 261 kts 195°
2026-05-06 23:32 33.55259 -84.58457 6887 ft 268 kts 186°
2026-05-06 23:33 33.53383 -84.58452 7599 ft 271 kts 186°
2026-05-06 23:33 33.51481 -84.58444 8331 ft 274 kts 187°
2026-05-06 23:33 33.49569 -84.58360 9060 ft 282 kts 177°
2026-05-06 23:33 33.47719 -84.57477 9735 ft 301 kts 152°
2026-05-06 23:34 33.46236 -84.55626 10387 ft 320 kts 126°
2026-05-06 23:34 33.45501 -84.53043 10769 ft 345 kts 97°
2026-05-06 23:34 33.45473 -84.50123 11251 ft 357 kts 90°
2026-05-06 23:34 33.45550 -84.47134 11870 ft 362 kts 90°
2026-05-06 23:35 33.45605 -84.44120 12526 ft 365 kts 91°
2026-05-06 23:35 33.45620 -84.41094 13105 ft 370 kts 92°
2026-05-06 23:35 33.45609 -84.37979 13681 ft 375 kts 92°
2026-05-06 23:35 33.45681 -84.34888 14249 ft 380 kts 83°
2026-05-06 23:36 33.46323 -84.31808 14824 ft 382 kts 66°
2026-05-06 23:36 33.47473 -84.28958 15387 ft 384 kts 59°
2026-05-06 23:36 33.48763 -84.26159 15933 ft 388 kts 57°
2026-05-06 23:36 33.50094 -84.23313 16518 ft 391 kts 57°
2026-05-06 23:37 33.51411 -84.20469 17096 ft 394 kts 57°
2026-05-06 23:37 33.52734 -84.17571 17651 ft 397 kts 57°
2026-05-06 23:37 33.54038 -84.14677 18194 ft 400 kts 57°
2026-05-06 23:37 33.55369 -84.11710 18706 ft 404 kts 57°
2026-05-06 23:38 33.56700 -84.08732 19185 ft 408 kts 57°
2026-05-06 23:38 33.58041 -84.05721 19623 ft 413 kts 57°
2026-05-06 23:38 33.59385 -84.02704 20068 ft 417 kts 57°
2026-05-06 23:38 33.60756 -83.99619 20503 ft 421 kts 57°
2026-05-06 23:39 33.62144 -83.96491 20938 ft 425 kts 57°
2026-05-06 23:39 33.63526 -83.93378 21359 ft 430 kts 57°
2026-05-06 23:39 33.64934 -83.90200 21804 ft 433 kts 57°
2026-05-06 23:39 33.66363 -83.86970 22219 ft 437 kts 57°
2026-05-06 23:40 33.67775 -83.83777 22655 ft 440 kts 57°
2026-05-06 23:40 33.69217 -83.80518 23081 ft 443 kts 57°
2026-05-06 23:40 33.70666 -83.77232 23526 ft 446 kts 56°
2026-05-06 23:40 33.72098 -83.73975 23973 ft 448 kts 56°
2026-05-06 23:41 33.73562 -83.70659 24402 ft 450 kts 56°
2026-05-06 23:41 33.75038 -83.67310 24810 ft 453 kts 56°
2026-05-06 23:41 33.76560 -83.64052 25241 ft 452 kts 52°
2026-05-06 23:41 33.78241 -83.60836 25643 ft 453 kts 50°
2026-05-06 23:42 33.79941 -83.57679 26042 ft 454 kts 50°
2026-05-06 23:42 33.81679 -83.54464 26426 ft 457 kts 49°
2026-05-06 23:42 33.83398 -83.51283 26792 ft 459 kts 50°
2026-05-06 23:42 33.85144 -83.48035 27134 ft 462 kts 50°
2026-05-06 23:43 33.86883 -83.44790 27533 ft 464 kts 49°
2026-05-06 23:43 33.88625 -83.41531 27919 ft 465 kts 50°
2026-05-06 23:43 33.90379 -83.38247 28262 ft 467 kts 49°
2026-05-06 23:43 33.92125 -83.34969 28602 ft 469 kts 50°
2026-05-06 23:44 33.93895 -83.31648 28912 ft 471 kts 50°
2026-05-06 23:44 33.95642 -83.28362 29226 ft 472 kts 50°
2026-05-06 23:44 33.97414 -83.25037 29514 ft 474 kts 50°
2026-05-06 23:44 33.99191 -83.21697 29767 ft 477 kts 50°
2026-05-06 23:45 34.00978 -83.18319 30020 ft 480 kts 50°
2026-05-06 23:45 34.02779 -83.14922 30278 ft 482 kts 50°
2026-05-06 23:45 34.04589 -83.11509 30496 ft 485 kts 51°
2026-05-06 23:45 34.06409 -83.08069 30746 ft 488 kts 50°
2026-05-06 23:46 34.08234 -83.04605 31049 ft 488 kts 50°
2026-05-06 23:46 34.10030 -83.01206 31268 ft 491 kts 51°
2026-05-06 23:46 34.11888 -82.97688 31466 ft 494 kts 51°
2026-05-06 23:46 34.13748 -82.94145 31680 ft 497 kts 51°
2026-05-06 23:47 34.15586 -82.90636 31940 ft 498 kts 51°
2026-05-06 23:47 34.17427 -82.87112 32143 ft 501 kts 51°
2026-05-06 23:47 34.19291 -82.83539 32346 ft 503 kts 51°
2026-05-06 23:47 34.21158 -82.79955 32602 ft 504 kts 52°
2026-05-06 23:48 34.23005 -82.76405 32825 ft 506 kts 51°
2026-05-06 23:48 34.24884 -82.72794 32981 ft 509 kts 52°
2026-05-06 23:48 34.26754 -82.69198 33185 ft 510 kts 52°
2026-05-06 23:48 34.28646 -82.65544 33432 ft 511 kts 52°
2026-05-06 23:49 34.30529 -82.61913 33684 ft 511 kts 51°
2026-05-06 23:49 34.32406 -82.58289 33941 ft 512 kts 52°
2026-05-06 23:49 34.34301 -82.54626 34241 ft 511 kts 52°
2026-05-06 23:49 34.36176 -82.51000 34517 ft 511 kts 52°
2026-05-06 23:50 34.38065 -82.47339 34789 ft 511 kts 51°
2026-05-06 23:50 34.41808 -82.40066 35398 ft 508 kts 50°
2026-05-06 23:50 34.43673 -82.36459 35558 ft 510 kts 51°
2026-05-06 23:51 34.45494 -82.32742 35712 ft 514 kts 53°
2026-05-06 23:51 34.47210 -82.29002 35894 ft 514 kts 54°
2026-05-06 23:51 34.48933 -82.25200 36042 ft 515 kts 55°
2026-05-06 23:51 34.50656 -82.21384 36131 ft 517 kts 54°
2026-05-06 23:52 34.52443 -82.17628 36284 ft 513 kts 51°
2026-05-06 23:52 34.54401 -82.14063 36404 ft 510 kts 46°
2026-05-06 23:52 34.56495 -82.10574 36551 ft 508 kts 45°
2026-05-06 23:52 34.58591 -82.07169 36714 ft 507 kts 45°
2026-05-06 23:53 34.62840 -82.00269 36907 ft 510 kts 45°
2026-05-06 23:53 34.67062 -81.93346 36945 ft 512 kts 45°
2026-05-06 23:54 34.71285 -81.86377 36961 ft 514 kts 45°
2026-05-06 23:54 34.75511 -81.79395 36949 ft 513 kts 45°
2026-05-06 23:55 34.79728 -81.72398 36938 ft 511 kts 45°
2026-05-06 23:55 34.83943 -81.65406 36932 ft 513 kts 45°
2026-05-06 23:56 34.88156 -81.58415 36927 ft 516 kts 46°
2026-05-06 23:56 34.92392 -81.51338 36927 ft 515 kts 45°
2026-05-06 23:57 34.96621 -81.44291 36939 ft 521 kts 45°
2026-05-06 23:57 35.00867 -81.37172 36928 ft 518 kts 45°
2026-05-06 23:58 35.05102 -81.30068 36924 ft 517 kts 46°
2026-05-06 23:58 35.09335 -81.22961 36933 ft 520 kts 45°
2026-05-06 23:59 35.13587 -81.15818 36942 ft 524 kts 45°
2026-05-06 23:59 35.17834 -81.08639 36948 ft 523 kts 45°
2026-05-07 00:00 35.22084 -81.01466 36938 ft 524 kts 45°
2026-05-07 00:00 35.26364 -80.94231 36939 ft 525 kts 45°
2026-05-07 00:01 35.30647 -80.86991 36940 ft 526 kts 45°
2026-05-07 00:01 35.32784 -80.83364 36719 ft 521 kts 45°
2026-05-07 00:01 35.34893 -80.79785 36042 ft 521 kts 46°
2026-05-07 00:02 35.36997 -80.76220 35158 ft 525 kts 47°
2026-05-07 00:02 35.39129 -80.72600 34372 ft 525 kts 47°
2026-05-07 00:02 35.41260 -80.68971 33897 ft 518 kts 47°
2026-05-07 00:02 35.43332 -80.65419 33487 ft 510 kts 48°
2026-05-07 00:03 35.45390 -80.61895 33043 ft 509 kts 48°
2026-05-07 00:03 35.47438 -80.58396 32883 ft 512 kts 47°
2026-05-07 00:03 35.49517 -80.54836 33127 ft 512 kts 47°
2026-05-07 00:03 35.51579 -80.51303 33399 ft 512 kts 48°
2026-05-07 00:04 35.53645 -80.47759 33633 ft 513 kts 48°
2026-05-07 00:04 35.55761 -80.44126 33774 ft 517 kts 47°
2026-05-07 00:04 35.57847 -80.40542 33996 ft 518 kts 47°
2026-05-07 00:04 35.59954 -80.36927 34090 ft 522 kts 47°
2026-05-07 00:05 35.64167 -80.29669 34382 ft 525 kts 47°
2026-05-07 00:05 35.66289 -80.26000 34615 ft 525 kts 47°
2026-05-07 00:05 35.68399 -80.22351 34747 ft 526 kts 47°
2026-05-07 00:06 35.70532 -80.18667 34860 ft 528 kts 46°
2026-05-07 00:06 35.72653 -80.14997 34941 ft 528 kts 46°
2026-05-07 00:06 35.76909 -80.07629 34944 ft 531 kts 46°
2026-05-07 00:07 35.81164 -80.00230 34947 ft 529 kts 47°
2026-05-07 00:07 35.85424 -79.92794 34944 ft 530 kts 47°
2026-05-07 00:08 35.89661 -79.85380 34935 ft 529 kts 47°
2026-05-07 00:08 35.93926 -79.77988 34932 ft 528 kts 45°
2026-05-07 00:09 35.98207 -79.70710 34934 ft 526 kts 44°
2026-05-07 00:09 36.02541 -79.63351 34929 ft 529 kts 45°
2026-05-07 00:10 36.06858 -79.55958 34932 ft 527 kts 44°
2026-05-07 00:10 36.11126 -79.48640 34925 ft 528 kts 45°
2026-05-07 00:11 36.15417 -79.41255 34923 ft 529 kts 44°
2026-05-07 00:11 36.19680 -79.33909 34914 ft 526 kts 45°
2026-05-07 00:12 36.23968 -79.26539 34888 ft 525 kts 45°
2026-05-07 00:12 36.26082 -79.22881 34636 ft 520 kts 45°
2026-05-07 00:12 36.28201 -79.19227 34370 ft 520 kts 45°
2026-05-07 00:13 36.30283 -79.15629 34100 ft 518 kts 45°
2026-05-07 00:13 36.32373 -79.12008 33829 ft 518 kts 45°
2026-05-07 00:13 36.34490 -79.08343 33558 ft 519 kts 45°
2026-05-07 00:13 36.36578 -79.04724 33290 ft 520 kts 45°
2026-05-07 00:14 36.38679 -79.01076 33039 ft 517 kts 45°
2026-05-07 00:14 36.40751 -78.97467 32791 ft 514 kts 46°
2026-05-07 00:14 36.42828 -78.93847 32539 ft 512 kts 46°
2026-05-07 00:14 36.44870 -78.90288 32292 ft 511 kts 46°
2026-05-07 00:15 36.46944 -78.86666 32037 ft 507 kts 46°
2026-05-07 00:15 36.48975 -78.83111 31789 ft 505 kts 47°
2026-05-07 00:15 36.50980 -78.79588 31538 ft 503 kts 47°
2026-05-07 00:15 36.53002 -78.76021 31286 ft 499 kts 47°
2026-05-07 00:16 36.54975 -78.72544 31040 ft 497 kts 47°
2026-05-07 00:16 36.57021 -78.69067 30784 ft 491 kts 44°
2026-05-07 00:16 36.59181 -78.65830 30532 ft 486 kts 40°
2026-05-07 00:16 36.61483 -78.62817 30281 ft 478 kts 36°
2026-05-07 00:17 36.63871 -78.59940 30032 ft 474 kts 35°
2026-05-07 00:17 36.66227 -78.57160 29782 ft 472 kts 36°
2026-05-07 00:17 36.68626 -78.54334 29527 ft 471 kts 36°
2026-05-07 00:17 36.70985 -78.51541 29278 ft 470 kts 37°
2026-05-07 00:18 36.73331 -78.48747 29028 ft 468 kts 37°
2026-05-07 00:18 36.75660 -78.45956 28931 ft 465 kts 36°
2026-05-07 00:18 36.80342 -78.40338 28928 ft 466 kts 37°
2026-05-07 00:19 36.85001 -78.34739 28927 ft 465 kts 37°
2026-05-07 00:19 36.89659 -78.29134 28923 ft 466 kts 37°
2026-05-07 00:20 36.94342 -78.23483 28919 ft 466 kts 37°
2026-05-07 00:20 36.98996 -78.17854 28919 ft 465 kts 37°
2026-05-07 00:21 37.03621 -78.12257 28602 ft 464 kts 37°
2026-05-07 00:21 37.05921 -78.09468 28349 ft 461 kts 37°
2026-05-07 00:21 37.08210 -78.06686 28097 ft 458 kts 37°
2026-05-07 00:22 37.10487 -78.03915 27846 ft 456 kts 37°
2026-05-07 00:22 37.12694 -78.01231 27600 ft 453 kts 37°
2026-05-07 00:22 37.14995 -77.98434 27343 ft 452 kts 37°
2026-05-07 00:22 37.17274 -77.95664 27084 ft 450 kts 37°
2026-05-07 00:23 37.19512 -77.92940 26834 ft 449 kts 37°
2026-05-07 00:23 37.21715 -77.90248 26584 ft 447 kts 37°
2026-05-07 00:23 37.23951 -77.87519 26330 ft 445 kts 37°
2026-05-07 00:23 37.26157 -77.84822 26078 ft 443 kts 37°
2026-05-07 00:24 37.28350 -77.82137 25829 ft 441 kts 37°
2026-05-07 00:24 37.30544 -77.79452 25575 ft 438 kts 37°
2026-05-07 00:24 37.32720 -77.76792 25323 ft 438 kts 37°
2026-05-07 00:24 37.34895 -77.74125 25075 ft 435 kts 37°
2026-05-07 00:25 37.37055 -77.71471 24823 ft 433 kts 37°
2026-05-07 00:25 37.39191 -77.68847 24576 ft 432 kts 37°
2026-05-07 00:25 37.41338 -77.66206 24324 ft 429 kts 37°
2026-05-07 00:25 37.43455 -77.63604 24077 ft 428 kts 37°
2026-05-07 00:26 37.45588 -77.60978 23823 ft 426 kts 37°
2026-05-07 00:26 37.47694 -77.58380 23578 ft 423 kts 37°
2026-05-07 00:26 37.49776 -77.55811 23329 ft 421 kts 37°
2026-05-07 00:26 37.51871 -77.53225 23082 ft 420 kts 36°
2026-05-07 00:27 37.53951 -77.50653 22773 ft 418 kts 37°
2026-05-07 00:27 37.56002 -77.48119 22398 ft 416 kts 36°
2026-05-07 00:27 37.58152 -77.45769 21974 ft 402 kts 25°
2026-05-07 00:27 37.60570 -77.44175 21709 ft 382 kts
2026-05-07 00:28 37.63100 -77.43263 21599 ft 377 kts
2026-05-07 00:28 37.65642 -77.42521 21162 ft 374 kts
2026-05-07 00:28 37.68204 -77.41790 20718 ft 372 kts
2026-05-07 00:28 37.70707 -77.41056 20282 ft 371 kts
2026-05-07 00:29 37.73192 -77.40301 19850 ft 369 kts
2026-05-07 00:29 37.75698 -77.39533 19417 ft 366 kts
2026-05-07 00:30 37.83060 -77.37259 18141 ft 360 kts
2026-05-07 00:30 37.85481 -77.36509 17714 ft 359 kts
2026-05-07 00:30 37.87901 -77.35761 17282 ft 358 kts
2026-05-07 00:30 37.90315 -77.35014 16909 ft 354 kts
2026-05-07 00:31 37.92664 -77.34288 16911 ft 351 kts
2026-05-07 00:31 37.95062 -77.33552 16930 ft 352 kts
2026-05-07 00:31 37.97434 -77.32823 16938 ft 352 kts
2026-05-07 00:31 37.99823 -77.32089 16670 ft 354 kts
2026-05-07 00:32 38.02213 -77.31354 16203 ft 354 kts
2026-05-07 00:32 38.04596 -77.30619 15765 ft 353 kts
2026-05-07 00:32 38.07003 -77.29873 15342 ft 351 kts
2026-05-07 00:32 38.09365 -77.29139 14918 ft 350 kts
2026-05-07 00:33 38.11713 -77.28402 14509 ft 348 kts
2026-05-07 00:33 38.14041 -77.27666 14066 ft 346 kts
2026-05-07 00:33 38.16347 -77.26941 13639 ft 343 kts
2026-05-07 00:33 38.18660 -77.26212 13233 ft 341 kts
2026-05-07 00:34 38.20953 -77.25441 12883 ft 337 kts
2026-05-07 00:34 38.23176 -77.24609 12883 ft 334 kts 10°
2026-05-07 00:34 38.25413 -77.23759 12880 ft 334 kts 10°
2026-05-07 00:34 38.27647 -77.22909 12725 ft 335 kts 10°
2026-05-07 00:35 38.29885 -77.22061 12311 ft 334 kts 10°
2026-05-07 00:35 38.32106 -77.21219 11868 ft 333 kts 10°
2026-05-07 00:35 38.34334 -77.20375 11486 ft 331 kts 10°
2026-05-07 00:35 38.36514 -77.19550 11060 ft 329 kts 10°
2026-05-07 00:36 38.38727 -77.18702 10890 ft 326 kts 10°
2026-05-07 00:36 38.40907 -77.17860 10910 ft 328 kts 11°
2026-05-07 00:36 38.43077 -77.17020 10966 ft 328 kts 10°
2026-05-07 00:36 38.45287 -77.16169 11004 ft 329 kts 10°
2026-05-07 00:37 38.47465 -77.15328 11001 ft 329 kts 10°
2026-05-07 00:37 38.48929 -77.14763 10979 ft 329 kts 10°
2026-05-07 00:37 38.50928 -77.13986 10894 ft 330 kts 10°
2026-05-07 00:37 38.54082 -77.12768 10301 ft 327 kts 10°
2026-05-07 00:38 38.56221 -77.11935 10063 ft 318 kts 10°
2026-05-07 00:38 38.58300 -77.11122 10019 ft 306 kts
2026-05-07 00:38 38.60361 -77.10331 10014 ft 308 kts
2026-05-07 00:38 38.62421 -77.09545 9975 ft 309 kts 10°
2026-05-07 00:39 38.64470 -77.08759 9595 ft 310 kts
2026-05-07 00:39 38.66538 -77.07962 9211 ft 308 kts
2026-05-07 00:39 38.68586 -77.07272 8844 ft 302 kts
2026-05-07 00:39 38.70661 -77.06882 8484 ft 296 kts 358°
2026-05-07 00:40 38.72677 -77.06668 8136 ft 293 kts 358°
2026-05-07 00:40 38.74721 -77.06480 7782 ft 290 kts 357°
2026-05-07 00:40 38.76685 -77.06662 7410 ft 278 kts 337°
2026-05-07 00:40 38.78378 -77.07658 7066 ft 266 kts 322°
2026-05-07 00:41 38.79917 -77.08939 6730 ft 264 kts 320°
2026-05-07 00:41 38.81441 -77.10232 6392 ft 262 kts 320°
2026-05-07 00:41 38.82933 -77.11577 6091 ft 260 kts 316°
2026-05-07 00:41 38.84304 -77.13087 6030 ft 261 kts 311°
2026-05-07 00:42 38.85629 -77.14725 6030 ft 261 kts 310°
2026-05-07 00:42 38.86914 -77.16333 6030 ft 261 kts 310°
2026-05-07 00:42 38.88235 -77.17985 6030 ft 261 kts 310°
2026-05-07 00:42 38.89529 -77.19601 6031 ft 261 kts 310°
2026-05-07 00:43 38.90837 -77.21229 5997 ft 256 kts 310°
2026-05-07 00:43 38.92079 -77.22774 5756 ft 241 kts 310°
2026-05-07 00:43 38.93237 -77.24218 5481 ft 229 kts 311°
2026-05-07 00:43 38.94383 -77.25630 5115 ft 222 kts 311°
2026-05-07 00:44 38.95467 -77.26953 4878 ft 210 kts 311°
2026-05-07 00:44 38.96495 -77.28207 4654 ft 198 kts 312°
2026-05-07 00:44 38.97455 -77.29382 4442 ft 187 kts 312°
2026-05-07 00:44 38.98381 -77.30521 4232 ft 180 kts 312°
2026-05-07 00:45 38.99283 -77.31622 3994 ft 177 kts 316°
2026-05-07 00:45 39.00413 -77.32253 3820 ft 188 kts 359°
2026-05-07 00:45 39.01643 -77.31617 3846 ft 200 kts 37°
2026-05-07 00:45 39.02389 -77.30087 3833 ft 210 kts 74°
2026-05-07 00:46 39.02256 -77.28252 3648 ft 207 kts 115°
2026-05-07 00:46 39.01554 -77.26650 3463 ft 208 kts 123°
2026-05-07 00:46 39.00791 -77.25058 3353 ft 208 kts 123°
2026-05-07 00:46 39.00048 -77.23470 3277 ft 208 kts 121°
2026-05-07 00:47 38.99324 -77.21858 3215 ft 208 kts 120°
2026-05-07 00:47 38.98606 -77.20219 3156 ft 208 kts 120°
2026-05-07 00:47 38.97903 -77.18598 3032 ft 208 kts 119°
2026-05-07 00:47 38.97202 -77.16975 2924 ft 207 kts 119°
2026-05-07 00:48 38.96492 -77.15401 2761 ft 199 kts 127°
2026-05-07 00:48 38.95544 -77.14132 2562 ft 195 kts 139°
2026-05-07 00:48 38.94514 -77.13006 2344 ft 197 kts 141°
2026-05-07 00:48 38.93453 -77.11903 2076 ft 197 kts 146°
2026-05-07 00:49 38.92269 -77.10992 1804 ft 198 kts 151°
2026-05-07 00:49 38.91162 -77.10005 1571 ft 187 kts 137°
2026-05-07 00:49 38.90470 -77.08701 1378 ft 174 kts 112°
2026-05-07 00:49 38.90002 -77.07326 1165 ft 164 kts 117°
2026-05-07 00:50 38.89334 -77.06191 913 ft 156 kts 134°
2026-05-07 00:50 38.88581 -77.05270 685 ft 144 kts 138°
2026-05-07 00:50 38.87822 -77.04444 489 ft 141 kts 148°
2026-05-07 00:50 38.86930 -77.03975 244 ft 138 kts 171°
2026-05-07 00:51 38.85985 -77.03857 38 ft 133 kts 174°
2026-05-07 00:51 38.85228 -77.03782 26 ft 69 kts 175°
2026-05-07 00:51 38.84949 -77.03756 26 ft 15 kts 177°
2026-05-07 00:51 38.84882 -77.03820 26 ft 13 kts 252°
2026-05-07 00:52 38.84878 -77.03863 26 ft 2 kts 268°
2026-05-07 00:52 38.84877 -77.03891 26 ft 3 kts 267°
2026-05-07 00:52 38.84881 -77.03931 26 ft 5 kts 300°
2026-05-07 00:52 38.84924 -77.03954 26 ft 9 kts 354°
2026-05-07 00:53 38.85003 -77.03963 26 ft 12 kts 354°
2026-05-07 00:53 38.85082 -77.03973 26 ft 7 kts 355°
2026-05-07 00:53 38.85119 -77.03994 26 ft 3 kts 316°
2026-05-07 00:53 38.85139 -77.04018 26 ft 5 kts 316°
2026-05-07 00:54 38.85166 -77.04049 26 ft 0 kts 318°